Wind_Speed
18 17 16 16 17 16 16 17 17 16 14 13 13 11 9 8 9 11 15 16 16 15 14 14 16 15 15 13 12 11 11 10 9 9 8 7 7 6 6 6 7 6 6
16 16 17 18 19 19 19 19 20 19 18 16 16 15 13 11 11 11 12 14 15 15 15 16 17 17 16 14 12 10 11 10 9 7 6 6 5 4 5 5 6 5 5
17 19 18 20 21 21 22 21 21 22 21 19 19 18 17 15 13 13 13 13 15 14 16 18 19 19 17 15 13 11 11 11 10 8 6 4 2 3 3 4 4 3 3
19 20 22 22 22 25 24 24 24 24 24 23 21 21 21 19 16 14 15 15 16 16 16 19 20 19 18 16 14 12 12 12 10 8 6 4 4 4 3 3 3 2 1
23 24 24 25 25 25 26 27 27 27 26 26 25 24 23 23 21 19 16 17 18 19 19 19 20 20 19 17 15 13 13 12 11 9 7 5 5 5 4 3 2 1 1
28 27 25 25 26 27 29 28 29 30 29 29 29 28 26 26 25 23 20 18 19 21 22 22 21 21 20 18 16 15 13 12 11 9 7 7 6 5 4 4 3 3 4
30 29 27 27 28 28 29 31 31 31 32 32 31 30 29 28 28 27 24 22 20 22 23 24 24 23 22 20 17 15 14 14 12 10 9 8 8 7 7 5 4 5 5
31 31 30 30 30 30 31 32 34 35 34 35 35 33 32 31 31 29 28 25 23 22 25 25 25 25 23 22 19 17 17 16 14 12 12 10 10 9 8 7 6 6 5
31 32 31 31 32 33 34 34 35 36 38 37 38 37 36 35 33 33 31 30 27 25 26 27 27 25 24 24 21 20 20 18 15 14 13 13 12 10 10 9 7 6 5
30 31 31 31 32 33 34 36 37 38 39 41 40 41 40 38 37 36 34 33 31 29 28 29 28 26 25 25 24 22 22 19 17 16 16 15 14 12 12 10 7 6 5
30 31 32 32 32 34 36 36 37 38 40 42 44 44 43 42 41 39 37 33 35 33 32 31 30 28 26 26 25 25 23 20 19 19 18 17 16 15 13 12 10 8 6
31 33 34 36 36 35 37 38 39 40 40 43 45 48 47 45 45 44 43 37 36 37 35 34 33 30 28 28 27 26 24 23 22 22 20 19 18 17 15 14 12 10 8
34 36 37 38 39 39 40 40 41 42 43 43 44 47 51 50 49 49 47 41 39 40 38 37 36 33 31 31 31 28 27 26 25 25 22 21 20 20 18 16 14 12 11
38 39 41 41 43 44 44 45 46 46 46 47 47 47 49 53 52 52 51 47 43 42 42 41 39 37 35 34 34 30 30 29 29 26 25 23 23 21 19 18 16 15 13
40 42 42 43 45 47 48 49 50 51 52 52 52 51 51 53 56 55 54 52 48 45 45 45 44 40 39 37 36 34 34 32 30 29 28 26 24 23 21 20 18 17 15
41 42 44 43 44 46 47 48 50 53 56 58 58 58 54 54 57 59 58 57 53 50 47 49 48 45 42 41 39 37 37 35 32 31 31 29 27 24 23 22 21 20 18
39 38 40 42 42 44 46 49 50 53 55 58 60 62 60 59 58 62 62 60 58 53 52 51 51 49 45 44 43 41 41 38 35 34 33 32 30 28 26 26 25 23 20
33 33 34 36 38 42 46 50 53 55 55 57 58 62 63 62 62 62 65 65 62 59 56 55 54 52 49 46 45 45 44 42 38 36 36 35 33 31 30 30 29 28 25
32 33 34 36 39 42 47 49 56 59 60 61 65 62 63 66 65 65 63 69 67 65 59 58 57 56 52 49 48 48 48 46 42 40 39 38 36 35 33 33 32 32 31
33 35 37 39 42 47 53 60 64 66 68 67 66 66 66 66 69 64 68 72 71 69 63 62 60 59 56 53 52 52 51 51 47 44 42 41 40 38 36 35 35 35 35
33 36 38 40 45 54 53 46 44 47 57 67 72 71 71 72 69 73 73 71 62 64 74 65 64 62 60 57 56 55 55 55 50 47 45 43 43 41 40 39 39 40 39
34 35 37 40 47 38 30 32 36 37 41 43 53 63 71 73 75 76 80 82 64 72 68 71 67 65 63 61 59 57 57 58 54 50 47 46 45 44 44 43 44 44 44
33 33 35 40 35 30 33 36 40 42 43 42 47 53 61 66 70 76 77 79 86 72 71 73 68 66 65 63 59 59 57 58 54 52 49 48 47 47 46 46 46 47 47
32 31 34 35 33 33 35 34 38 45 48 47 47 52 55 57 59 71 77 86 86 80 57 74 74 68 67 65 62 60 59 58 58 55 53 51 50 49 49 49 49 49 50
31 32 33 34 33 32 29 35 40 41 34 39 39 50 58 54 57 61 76 85 71 83 67 65 79 70 71 65 64 62 60 59 58 57 57 55 54 54 54 53 53 53 53
31 33 33 34 31 33 32 34 37 33 33 32 37 39 53 51 54 55 74 88 73 82 72 64 68 68 69 69 65 63 62 62 61 60 59 59 58 58 57 57 55 54 54
Wind_Direction
242 241 236 240 244 242 238 227 218 218 223 230 234 228 218 210 211 208 214 216 214 212 215 203 196 186 178 172 164 160 156 147 138 132 127 118 111 106 101 95 93 93 97
248 251 244 241 239 241 241 236 231 224 224 227 233 234 231 221 216 211 207 212 213 211 204 192 187 184 182 179 173 168 167 159 151 147 136 126 124 117 112 111 108 104 96
251 248 244 245 241 241 241 243 237 235 232 229 231 233 236 233 225 219 213 207 203 200 193 192 189 185 188 186 183 181 176 171 167 159 152 142 127 117 119 118 119 117 104
261 254 250 241 244 244 242 242 244 239 236 235 233 233 234 236 235 227 221 214 209 201 195 190 190 190 191 191 190 188 185 181 175 173 171 170 141 129 130 139 136 111 89
258 254 251 250 244 242 242 240 243 244 239 237 235 234 234 234 236 232 228 223 218 212 206 203 201 199 197 195 194 197 194 187 183 180 181 180 164 157 176 183 190 177 333
255 253 254 254 252 249 247 243 241 244 244 239 238 235 233 233 235 236 231 229 223 219 215 209 208 206 202 202 201 203 196 190 192 194 196 193 182 183 196 210 230 271 291
254 256 257 255 254 251 248 248 244 242 244 245 240 237 237 234 234 237 236 231 230 223 221 216 211 208 205 208 208 208 198 195 198 216 217 206 199 200 205 224 250 271 279
254 253 253 253 250 250 249 247 245 244 243 243 244 241 238 237 235 236 238 236 231 231 224 220 212 208 207 210 211 208 201 201 204 219 224 216 213 206 213 217 228 245 262
257 256 253 253 251 249 249 247 245 244 242 241 242 242 241 239 237 235 235 236 232 230 225 220 213 208 209 214 210 206 204 205 214 223 225 223 218 209 215 214 217 236 255
261 259 258 256 254 252 251 249 249 246 243 241 240 240 241 240 239 238 233 235 235 230 227 222 218 210 212 216 213 207 208 211 220 224 225 222 212 208 211 214 219 227 248
267 266 265 259 257 258 255 254 251 250 248 243 240 239 239 240 240 239 233 234 237 233 228 225 222 215 212 216 216 210 211 216 221 225 222 216 211 211 215 216 215 225 235
261 259 259 262 263 259 259 257 255 252 250 249 244 239 237 238 239 240 236 231 235 235 231 227 226 220 216 216 216 215 216 219 223 224 217 213 212 214 214 211 211 221 227
263 265 265 264 261 257 257 257 257 255 252 248 248 244 238 236 236 238 239 234 233 235 233 229 227 224 220 218 217 214 218 223 225 224 218 214 218 212 210 215 212 222 229
264 263 265 264 262 260 257 256 257 255 254 252 246 245 240 237 236 236 237 236 232 233 233 231 227 224 223 220 219 215 220 223 225 223 218 216 216 218 216 217 222 225 230
266 265 265 265 265 264 261 258 255 255 254 252 251 244 242 238 235 235 235 236 232 231 233 232 230 224 223 222 219 217 221 222 224 222 220 218 219 220 223 226 230 229 239
269 270 271 269 268 267 265 260 257 254 253 251 250 248 242 240 235 233 233 234 232 230 231 232 230 226 222 222 219 218 221 224 223 223 223 221 221 225 231 233 235 238 242
274 272 271 271 270 267 266 264 260 257 253 251 249 247 244 240 236 232 230 233 233 228 229 232 231 228 224 223 220 219 222 224 223 223 224 225 225 228 233 235 237 240 249
271 271 273 274 273 270 269 268 265 259 253 249 248 246 244 241 237 232 229 230 233 230 227 230 231 229 225 223 221 221 223 226 223 224 226 228 230 231 231 234 238 241 247
272 275 275 274 275 273 271 269 267 263 256 250 246 245 245 241 236 230 226 228 232 231 227 228 230 230 225 224 222 221 224 227 224 225 227 229 231 233 234 235 238 244 249
275 279 281 283 285 286 282 277 271 264 259 255 251 249 245 240 235 229 223 222 230 230 226 226 228 229 226 223 222 221 224 229 227 226 228 230 234 235 236 239 242 246 251
279 281 286 291 293 290 291 286 276 268 261 257 251 245 242 239 235 228 224 221 225 223 229 227 226 228 227 225 223 222 224 228 229 230 230 232 235 238 241 243 247 250 254
279 283 290 293 298 293 288 293 288 278 273 261 251 244 242 241 239 236 222 219 215 221 227 226 225 226 227 225 225 223 224 229 230 232 233 235 237 240 243 246 249 254 257
282 286 294 300 293 279 286 288 281 277 272 265 255 245 234 231 231 230 225 219 217 225 224 223 226 226 227 226 226 226 225 229 234 235 237 238 240 243 246 249 252 255 258
283 290 295 303 290 274 285 288 285 276 274 264 254 243 227 226 227 228 222 217 217 218 215 219 221 222 226 225 225 226 227 227 230 234 237 240 241 245 248 250 254 256 259
288 292 297 306 301 282 281 290 292 284 275 271 255 237 223 227 229 230 220 215 212 221 226 219 218 219 222 226 225 226 227 228 231 235 239 241 243 245 247 250 253 257 261
291 294 300 308 315 290 284 297 283 281 277 265 256 237 228 227 226 233 220 213 214 217 216 212 220 215 220 222 227 227 228 230 231 233 235 238 242 246 250 253 256 260 263
Height
5829 5830 5831 5833 5834 5834 5835 5837 5838 5840 5842 5844 5846 5848 5849 5850 5851 5852 5854 5856 5857 5858 5859 5862 5863 5865 5867 5869 5870 5871 5872 5873 5874 5874 5875 5875 5875 5875 5876 5876 5876 5875 5875
5827 5828 5829 5830 5831 5832 5833 5834 5836 5838 5840 5842 5844 5846 5848 5849 5851 5852 5852 5854 5856 5857 5858 5860 5863 5865 5867 5868 5870 5871 5872 5873 5874 5874 5875 5875 5876 5876 5876 5875 5875 5876 5876
5824 5824 5826 5827 5828 5830 5831 5831 5833 5835 5837 5839 5842 5844 5846 5848 5849 5851 5852 5853 5854 5856 5857 5859 5862 5864 5866 5867 5869 5870 5871 5872 5873 5874 5874 5875 5876 5875 5876 5876 5875 5876 5876
5819 5821 5821 5823 5824 5826 5828 5829 5830 5832 5834 5836 5839 5841 5843 5846 5848 5849 5850 5852 5854 5855 5857 5859 5861 5863 5865 5867 5868 5869 5870 5871 5872 5873 5874 5875 5875 5875 5876 5876 5876 5876 5876
5813 5815 5817 5818 5820 5821 5823 5825 5827 5828 5830 5832 5835 5838 5840 5843 5845 5847 5849 5850 5852 5854 5856 5858 5860 5862 5864 5866 5867 5868 5869 5870 5871 5872 5873 5873 5874 5874 5875 5875 5876 5876 5876
5808 5809 5812 5813 5815 5817 5819 5821 5823 5825 5826 5828 5831 5834 5836 5839 5842 5844 5846 5848 5850 5852 5853 5855 5858 5861 5863 5864 5865 5866 5868 5869 5870 5871 5871 5872 5873 5874 5874 5875 5875 5875 5875
5803 5805 5807 5808 5809 5811 5814 5816 5818 5820 5822 5824 5827 5830 5833 5835 5837 5840 5843 5845 5847 5849 5851 5853 5855 5858 5861 5862 5864 5865 5867 5868 5869 5870 5870 5871 5872 5872 5873 5873 5874 5874 5874
5797 5799 5801 5802 5803 5805 5807 5810 5812 5815 5817 5819 5822 5825 5828 5830 5833 5836 5839 5841 5844 5846 5848 5850 5852 5856 5859 5859 5861 5863 5864 5866 5867 5868 5869 5869 5870 5871 5871 5872 5873 5874 5874
5790 5792 5794 5796 5797 5799 5801 5803 5805 5807 5810 5813 5816 5819 5822 5825 5829 5831 5834 5837 5840 5842 5844 5847 5849 5853 5856 5857 5859 5860 5862 5863 5865 5866 5866 5867 5868 5869 5870 5871 5872 5873 5873
5784 5785 5787 5789 5790 5792 5794 5796 5798 5800 5803 5806 5809 5812 5816 5820 5823 5826 5829 5832 5835 5838 5840 5843 5846 5849 5852 5854 5856 5857 5859 5861 5862 5863 5865 5865 5866 5867 5868 5870 5871 5871 5872
5777 5777 5778 5781 5783 5784 5786 5788 5791 5793 5795 5798 5801 5805 5808 5813 5816 5819 5824 5827 5830 5833 5836 5839 5842 5846 5848 5850 5853 5854 5856 5859 5860 5861 5862 5863 5864 5865 5867 5868 5869 5870 5871
5771 5772 5772 5773 5774 5777 5778 5780 5782 5785 5787 5790 5793 5796 5800 5804 5809 5812 5817 5821 5824 5828 5831 5834 5837 5842 5845 5846 5849 5851 5854 5856 5857 5858 5859 5861 5862 5863 5865 5866 5867 5868 5869
5764 5763 5764 5765 5766 5769 5771 5772 5773 5775 5778 5781 5784 5787 5791 5795 5800 5804 5808 5815 5818 5822 5826 5829 5833 5837 5840 5842 5844 5847 5850 5852 5853 5855 5856 5857 5859 5861 5862 5863 5864 5865 5866
5755 5756 5755 5756 5757 5758 5761 5763 5763 5765 5767 5770 5774 5777 5781 5787 5791 5795 5800 5806 5811 5815 5819 5823 5826 5831 5834 5837 5840 5843 5846 5848 5849 5852 5853 5855 5856 5858 5859 5860 5861 5862 5863
5745 5745 5746 5746 5746 5747 5750 5752 5753 5755 5756 5759 5762 5767 5770 5776 5781 5786 5790 5796 5802 5807 5811 5815 5819 5824 5828 5831 5835 5838 5841 5843 5845 5848 5850 5851 5853 5855 5856 5858 5858 5860 5861
5735 5735 5734 5734 5735 5735 5735 5738 5741 5743 5744 5746 5750 5754 5760 5764 5769 5775 5781 5785 5792 5798 5802 5807 5811 5816 5820 5824 5829 5832 5835 5837 5841 5843 5846 5848 5849 5851 5853 5855 5855 5856 5857
5724 5724 5723 5723 5723 5723 5723 5724 5726 5729 5732 5733 5737 5740 5745 5751 5757 5763 5770 5776 5781 5788 5792 5797 5802 5808 5813 5817 5822 5826 5829 5831 5835 5838 5841 5844 5846 5847 5849 5851 5852 5852 5853
5715 5714 5713 5712 5712 5711 5711 5710 5711 5713 5717 5720 5722 5726 5730 5736 5742 5749 5756 5763 5769 5777 5782 5786 5793 5799 5805 5810 5815 5819 5823 5825 5829 5832 5835 5838 5841 5842 5843 5845 5847 5848 5849
5706 5705 5704 5703 5701 5700 5698 5697 5694 5694 5698 5702 5705 5709 5714 5719 5726 5733 5742 5751 5757 5765 5772 5776 5783 5790 5796 5801 5806 5811 5815 5817 5822 5825 5828 5832 5834 5836 5838 5839 5840 5842 5843
5698 5696 5693 5690 5687 5684 5681 5678 5675 5673 5675 5679 5686 5690 5694 5701 5709 5717 5727 5737 5743 5751 5760 5766 5772 5779 5786 5791 5796 5801 5806 5809 5814 5817 5821 5824 5828 5829 5832 5833 5835 5836 5837
5688 5685 5682 5677 5673 5667 5660 5655 5651 5650 5649 5654 5661 5668 5675 5682 5690 5701 5711 5718 5720 5734 5747 5755 5759 5768 5776 5782 5786 5792 5797 5800 5807 5810 5813 5817 5821 5823 5825 5826 5828 5829 5830
5679 5675 5671 5666 5659 5652 5649 5645 5642 5638 5637 5637 5639 5647 5654 5662 5671 5680 5693 5705 5714 5722 5730 5741 5748 5756 5765 5771 5777 5783 5788 5793 5799 5804 5807 5810 5813 5815 5817 5819 5820 5821 5822
5669 5665 5659 5654 5647 5643 5640 5637 5632 5628 5625 5624 5625 5628 5634 5642 5650 5660 5673 5688 5697 5704 5715 5729 5736 5746 5755 5762 5768 5775 5780 5786 5792 5796 5800 5802 5805 5807 5809 5811 5812 5812 5813
5659 5654 5649 5644 5637 5633 5630 5625 5619 5614 5611 5610 5610 5612 5619 5627 5635 5643 5656 5669 5681 5696 5701 5711 5723 5733 5741 5750 5757 5764 5770 5776 5780 5786 5790 5793 5796 5799 5801 5802 5803 5803 5804
5649 5645 5640 5634 5627 5623 5619 5616 5610 5603 5599 5596 5595 5598 5606 5615 5622 5629 5640 5655 5669 5681 5692 5694 5706 5719 5729 5739 5746 5754 5760 5766 5771 5777 5781 5784 5787 5788 5790 5792 5793 5794 5795
5640 5636 5630 5624 5620 5613 5610 5605 5599 5595 5591 5587 5584 5587 5596 5604 5612 5618 5628 5642 5656 5672 5684 5684 5691 5703 5717 5727 5736 5743 5749 5755 5761 5764 5769 5772 5776 5778 5781 5782 5783 5785 5786